DW1410 Weather Reports


time (UTC)temp
C
wind
direction
speed
KPH
gust
KPH
rain 1hr
cm
rain 24hr
cm
rain mn
cm
humidity
%
barometer
mb
20260906063002 10 288 1.6 14.5 0.00 0.00 0.00 90 1005.6
20260906061502 9 309 0.0 4.8 0.00 0.00 0.00 94 1005.5
20260906060007 8 302 0.0 3.2 0.00 0.00 0.00 97 1005.4
20260906054502 7 296 1.6 3.2 0.00 0.00 0.00 98 1005.2
20260906053002 7 316 1.6 4.8 0.00 0.00 0.00 98 1005.1
20260906051502 6 308 1.6 4.8 0.00 0.00 0.00 98 1005.0
20260906050014 6 292 1.6 4.8 0.00 0.00 0.00 98 1004.8
20260906044502 5 288 0.0 3.2 0.00 0.00 0.00 97 1004.8
20260906043002 5 288 0.0 0.0 0.00 0.00 0.00 97 1004.7
20260906041503 5 288 0.0 0.0 0.00 0.00 0.00 97 1004.3
20260906040005 5 288 0.0 1.6 0.00 0.00 0.00 97 1004.2
20260906034502 5 281 0.0 3.2 0.00 0.00 0.00 97 1004.1
20260906033002 6 290 0.0 3.2 0.00 0.00 0.00 97 1004.0
20260906031501 6 309 0.0 6.4 0.00 0.00 0.00 97 1003.8
20260906030005 6 292 0.0 4.8 0.00 0.00 0.00 97 1003.6
20260906024502 6 306 0.0 3.2 0.00 0.00 0.00 96 1003.6
20260906023002 6 306 1.6 8.0 0.00 0.00 0.00 97 1003.3
20260906021502 6 311 0.0 4.8 0.00 0.00 0.00 97 1003.3
20260906020005 6 284 0.0 4.8 0.00 0.00 0.00 97 1003.0
20260906014506 6 298 1.6 6.4 0.00 0.00 0.00 97 1002.8
20260906013006 6 281 0.0 3.2 0.00 0.00 0.00 96 1002.6
20260906011503 6 250 0.0 3.2 0.00 0.00 0.00 96 1002.5
20260906010007 6 296 0.0 1.6 0.00 0.00 0.00 95 1002.2
20260906004503 6 314 0.0 3.2 0.00 0.00 0.00 95 1002.3
20260906003004 7 303 0.0 4.8 0.00 0.00 0.00 95 1002.1
20260906001502 7 302 0.0 3.2 0.00 0.00 0.00 95 1001.8
20260906000005 7 355 1.6 6.4 0.00 0.00 0.00 94 1001.6
20260905234503 7 302 1.6 6.4 0.00 0.00 0.00 94 1001.4
20260905233002 7 312 0.0 4.8 0.00 0.00 0.00 93 1001.4
20260905231503 8 9 0.0 8.0 0.00 0.00 0.00 93 1001.2
20260905230005 8 283 0.0 8.0 0.00 0.00 0.00 93 1001.2
20260905224504 8 323 1.6 6.4 0.00 0.00 0.00 93 1000.9
20260905223003 8 288 0.0 3.2 0.00 0.00 0.00 92 1000.7
20260905221506 8 284 0.0 4.8 0.00 0.00 0.00 92 1000.6
20260905220002 9 302 1.6 6.4 0.00 0.00 0.00 91 1000.5
20260905214500 10 291 0.0 11.3 0.00 0.00 0.00 90 1000.2
20260905213000 10 304 0.0 3.2 0.00 0.00 0.00 91 1000.0
20260905211500 10 304 0.0 6.4 0.00 0.00 0.00 91 999.9
20260905210007 10 9 1.6 6.4 0.00 0.00 0.00 92 999.7
20260905204504 10 292 0.0 4.8 0.00 0.00 0.00 92 999.4
20260905203002 11 355 0.0 3.2 0.00 0.00 0.00 93 999.2
20260905201501 11 29 1.6 8.0 0.00 0.00 0.00 94 998.9
20260905200004 11 303 0.0 4.8 0.00 0.00 0.00 94 998.6
20260905194501 10 288 0.0 4.8 0.00 0.00 0.00 95 998.4
20260905193002 10 302 0.0 1.6 0.00 0.00 0.00 94 998.2
20260905191502 10 302 0.0 1.6 0.00 0.00 0.00 93 998.2
20260905190009 11 302 0.0 0.0 0.00 0.00 0.00 92 998.1
20260905184505 11 302 0.0 0.0 0.00 0.00 0.00 91 998.0
20260905183001 11 302 0.0 0.0 0.00 0.00 0.00 91 998.0
20260905181503 12 299 0.0 0.0 0.00 0.00 0.00 89 997.9
20260905180006 12 299 0.0 0.0 0.00 0.00 0.00 88 997.8
20260905174504 12 299 0.0 0.0 0.00 0.00 0.00 87 997.7
20260905173001 13 299 0.0 1.6 0.00 0.00 0.00 86 997.5
20260905171502 13 297 0.0 0.0 0.00 0.00 0.00 84 997.3
20260905170004 13 297 0.0 3.2 0.00 0.00 0.00 83 997.0
20260905164501 14 298 0.0 6.4 0.00 0.00 0.00 80 996.9
20260905163001 15 284 0.0 8.0 0.00 0.00 0.00 78 996.7
20260905161501 15 302 0.0 6.4 0.00 0.00 0.00 77 996.5
20260905160003 15 233 1.6 6.4 0.00 0.00 0.00 75 996.3
20260905154502 15 285 1.6 4.8 0.00 0.00 0.00 77 996.1
20260905153001 15 252 0.0 3.2 0.00 0.00 0.00 77 996.1
20260905151502 15 279 1.6 6.4 0.00 0.00 0.00 77 996.0
20260905150006 15 299 1.6 4.8 0.00 0.00 0.00 75 996.0
20260905144506 15 277 1.6 9.7 0.00 0.00 0.00 74 995.8
20260905143000 15 278 1.6 11.3 0.00 0.00 0.00 74 995.6
20260905141500 16 301 1.6 4.8 0.00 0.00 0.00 73 995.5
20260905140004 16 305 1.6 12.9 0.00 0.00 0.00 70 995.4
20260905134502 17 337 4.8 12.9 0.00 0.00 0.00 60 995.1
20260905133001 17 107 3.2 11.3 0.00 0.00 0.00 57 994.9
20260905131501 17 298 3.2 6.4 0.00 0.00 0.00 58 994.7
20260905130003 16 327 0.0 4.8 0.00 0.00 0.00 63 994.6
20260905124501 17 355 1.6 8.0 0.00 0.03 0.00 63 994.6
20260905123001 16 267 0.0 4.8 0.00 0.03 0.00 63 994.7
20260905121501 16 291 3.2 6.4 0.00 0.03 0.00 64 994.6
20260905120003 16 323 1.6 4.8 0.00 0.03 0.00 66 994.7
20260905114501 16 296 3.2 11.3 0.00 0.05 0.00 64 994.4
20260905113001 17 299 0.0 8.0 0.00 0.05 0.00 60 994.3
20260905111501 17 281 3.2 9.7 0.00 0.05 0.00 60 994.3
20260905110007 16 279 1.6 12.9 0.00 0.05 0.00 65 994.2
20260905104501 16 12 0.0 6.4 0.00 0.51 0.00 68 994.2
20260905103004 16 306 3.2 6.4 0.00 0.51 0.00 68 994.0
20260905101508 16 40 4.8 11.3 0.00 0.51 0.00 67 993.9
20260905100006 16 269 1.6 4.8 0.00 0.51 0.00 69 993.9
20260905094502 16 313 1.6 12.9 0.00 0.53 0.00 67 993.7
20260905093002 16 360 1.6 8.0 0.00 0.53 0.00 71 993.7
20260905091502 15 17 3.2 8.0 0.00 0.53 0.00 74 993.6
20260905090004 15 19 1.6 6.4 0.00 0.53 0.00 80 993.5
20260905084502 14 292 0.0 6.4 0.00 0.53 0.00 82 993.4
20260905083002 13 271 0.0 4.8 0.00 0.53 0.00 86 993.3
20260905081502 12 58 0.0 6.4 0.00 0.53 0.00 91 993.3
20260905080004 11 14 1.6 6.4 0.00 0.53 0.00 95 993.3
20260905074505 10 321 0.0 4.8 0.00 0.53 0.00 99 993.2
20260905073002 10 37 0.0 4.8 0.00 0.53 0.00 100 993.2
20260905071502 8 42 1.6 4.8 0.00 0.53 0.00 100 993.1
20260905070004 7 290 0.0 3.2 0.00 0.53 0.00 99 993.1
20260905064502 7 12 0.0 3.2 0.00 0.53 0.00 99 993.1